GFSFLT2_con_sbcape_132.txt.gz
CAPE
0 0 0 0 0 0 0 0 0 0 7 0 131 173 717 632 404 250 156 80 1 39 1 39 108 145 370 412 339 445 533 517
0 0 0 0 0 0 0 0 1 59 84 11 12 197 299 358 301 238 97 75 64 70 20 61 138 191 315 554 442 528 467 395
0 0 0 0 0 0 0 0 0 1 1 8 0 1 123 291 423 291 265 200 212 66 75 125 135 195 387 659 610 560 512 506
0 0 0 0 0 0 0 0 0 0 0 3 12 124 53 111 322 260 409 446 286 256 170 152 235 130 505 603 633 552 534 607
0 0 0 0 0 0 0 0 0 0 0 0 113 98 65 155 428 125 149 106 92 191 155 107 299 332 639 694 714 582 462 554
0 0 0 0 0 0 0 0 0 0 1 0 55 256 653 627 484 415 200 288 395 118 136 75 97 419 227 578 564 694 629 518
0 0 0 0 0 0 0 0 0 0 0 0 0 65 479 494 583 383 225 189 211 206 210 183 65 86 297 313 186 39 87 122
0 0 0 0 0 0 0 0 0 0 2 9 0 0 253 267 493 551 276 91 98 124 153 167 132 235 173 106 36 58 24 13
0 0 0 0 0 0 0 0 0 0 0 142 69 13 186 241 391 393 187 31 7 3 44 114 176 169 165 15 0 3 0 59
0 0 0 0 0 0 0 0 0 0 30 158 56 39 84 149 179 178 86 0 0 0 0 7 1 47 92 0 7 0 0 0
0 0 0 0 0 0 0 0 0 10 153 369 189 90 36 22 42 78 17 1 0 0 0 0 0 2 9 30 9 1 0 0
0 0 0 0 0 0 0 0 0 20 153 265 162 0 0 72 31 40 0 0 1 1 0 0 0 1 0 0 1 1 0 0
0 0 0 0 0 0 0 0 0 0 11 188 93 0 0 10 9 1 0 0 0 0 0 0 0 0 0 1 2 2 3 54
0 0 4 6 20 0 0 0 0 0 0 64 48 67 90 9 3 0 0 1 0 0 0 0 0 0 1 0 1 1 3 5
0 0 3 38 1 0 0 0 0 0 0 0 35 51 156 29 0 0 0 0 0 1 0 0 1 1 0 1 1 1 1 1
3 4 16 64 0 0 0 0 0 0 0 0 0 46 56 7 1 0 0 0 0 0 0 0 1 1 1 1 0 9 4 2
4 67 37 8 62 57 23 0 1 0 11 7 0 0 51 21 0 0 0 0 0 0 0 0 0 1 1 1 0 0 0 0
0 13 30 34 12 0 0 0 0 1 33 54 0 17 33 8 0 0 0 0 0 0 0 0 0 2 0 1 1 1 1 1
72 10 3 22 3 0 0 0 0 27 32 188 94 52 13 0 0 0 0 0 0 0 0 0 0 0 0 0 0 0 0 0

GFSFLT2_con_sbcape_135.txt.gz
CAPE
0 0 0 0 0 0 0 0 0 0 3 1 68 229 470 549 348 199 146 22 25 32 47 118 140 122 395 340 360 288 529 441
0 0 0 0 0 0 0 0 0 0 13 0 139 246 230 304 355 344 221 56 0 19 17 88 129 143 186 384 357 262 384 470
0 0 0 0 0 0 0 0 0 0 1 0 3 0 154 163 337 254 110 146 147 47 66 57 125 131 145 343 328 299 280 307
0 0 0 0 0 0 0 0 0 0 0 0 6 65 41 273 262 274 361 313 235 127 127 93 69 46 111 247 356 308 188 254
0 0 0 0 0 0 0 0 0 0 0 0 43 81 42 340 231 91 112 130 256 182 199 259 344 141 136 318 459 416 374 348
0 0 0 0 0 0 0 0 0 0 1 2 208 340 431 421 348 85 318 323 114 174 57 81 231 367 432 637 811 534 433 408
0 0 0 0 0 0 0 0 0 0 0 0 17 195 556 400 427 320 378 307 324 272 141 79 38 135 367 502 799 700 489 367
0 0 0 0 0 0 0 0 0 0 0 0 11 0 74 229 483 333 234 120 126 147 90 119 203 163 40 245 384 554 501 320
0 0 0 0 0 0 0 0 0 0 0 35 27 0 0 115 272 315 180 47 0 0 1 0 12 69 152 115 74 143 301 209
0 0 0 0 0 0 0 0 0 0 0 0 7 0 18 60 102 177 90 0 0 0 0 0 0 0 6 33 11 38 97 102
0 0 0 0 0 0 0 0 0 0 0 137 79 28 9 16 18 0 38 0 0 0 0 0 0 0 1 2 18 7 21 2
0 0 0 0 0 0 0 0 0 0 26 107 32 5 0 0 0 0 0 0 0 0 0 0 0 0 0 0 1 4 6 1
0 0 0 0 0 0 0 0 0 0 0 4 18 0 0 0 0 0 0 0 0 0 0 0 0 1 0 1 1 6 3 1
0 0 0 0 0 0 0 0 0 0 0 0 0 0 0 1 0 0 0 0 0 0 0 0 0 0 1 0 1 1 5 1
0 0 0 0 0 0 0 0 0 0 0 0 0 4 31 2 0 0 0 0 0 0 0 0 0 0 0 1 0 0 1 1
1 0 0 0 0 0 0 0 0 0 0 0 0 11 3 1 1 1 0 0 0 0 1 0 0 1 0 1 0 1 1 1
34 25 33 9 0 0 0 0 0 0 0 0 0 0 0 0 0 0 0 0 0 0 0 1 1 1 1 1 0 0 1 0
3 53 14 35 13 0 0 0 0 0 1 0 0 0 0 0 0 0 0 0 0 0 0 1 2 1 2 0 0 0 0 1
6 25 0 3 0 0 0 0 0 0 0 0 0 0 0 0 0 0 0 0 0 0 0 0 0 0 0 0 0 0 0 0

GFSFLT2_con_sbcape_138.txt.gz
CAPE
0 0 0 0 0 0 0 0 0 0 1 4 10 105 266 384 247 123 0 0 6 57 99 83 92 167 220 200 232 197 281 287
0 0 0 0 0 0 0 0 0 0 21 1 129 79 16 111 335 243 91 2 4 26 75 85 120 77 316 286 164 161 270 313
0 0 0 0 0 0 0 0 0 0 0 0 22 3 54 197 140 367 122 60 0 14 15 72 107 160 209 104 260 171 157 344
0 0 0 0 0 0 0 0 0 0 0 0 0 0 20 254 172 413 114 101 96 22 41 62 125 198 239 116 196 253 200 175
0 0 0 0 0 0 0 0 0 0 0 0 0 7 29 154 148 171 331 222 109 58 56 50 136 152 172 127 213 327 217 264
0 0 0 0 0 0 0 0 0 0 0 0 16 30 65 244 234 42 112 84 148 83 50 57 166 145 139 173 158 394 261 228
0 0 0 0 0 0 0 0 0 0 0 0 1 51 250 302 379 165 260 290 143 81 48 32 25 22 271 336 454 462 453 398
0 0 0 0 0 0 0 0 0 0 0 0 0 0 60 375 415 313 185 92 64 5 7 0 1 10 40 58 149 448 505 458
0 0 0 0 0 0 0 0 0 0 0 0 2 0 0 5 149 301 252 40 7 0 2 2 1 1 0 1 4 72 205 482
0 0 0 0 0 0 0 0 0 0 0 0 0 0 0 1 45 95 63 0 0 0 0 0 1 0 2 0 12 14 30 58
0 0 0 0 0 0 0 0 0 0 0 0 0 0 0 0 0 1 0 0 0 0 0 0 0 1 1 0 0 3 3 2
0 0 0 0 0 0 0 0 0 0 0 0 0 0 0 0 0 0 0 0 0 0 0 0 0 1 1 0 0 2 3 0
0 0 0 0 0 0 0 0 0 0 0 0 0 0 0 0 0 0 0 0 0 0 0 1 0 1 0 0 6 10 6 7
0 0 0 0 0 0 0 0 0 0 0 0 0 0 0 0 0 0 0 0 0 0 0 0 0 1 0 1 3 3 6 6
0 0 0 0 0 0 0 0 0 0 0 0 0 1 0 0 0 0 0 0 0 0 0 0 0 0 0 3 1 1 2 4
8 6 0 0 0 0 0 0 0 0 0 0 0 9 1 0 0 0 0 0 0 0 1 1 0 0 0 0 0 0 1 1
21 36 60 15 1 0 0 0 0 0 0 0 1 0 0 0 0 0 0 0 0 0 0 1 1 1 0 0 0 0 1 1
18 24 14 10 4 2 0 0 0 0 0 0 0 0 0 0 0 0 0 0 0 0 1 3 1 1 1 0 0 1 1 2
0 14 4 21 12 0 0 0 0 0 0 0 0 0 0 0 0 0 0 0 0 0 0 1 0 1 0 0 0 1 2 1

GFSFLT2_con_sbcape_141.txt.gz
CAPE
0 0 0 0 0 0 0 0 0 0 1 55 178 495 947 997 661 471 458 303 369 329 431 597 518 775 919 983 1102 1104 1077 1345
0 0 0 0 0 0 0 0 0 0 52 9 522 311 395 760 941 860 598 439 437 437 470 617 689 784 603 759 1063 1105 1027 1106
0 0 0 0 0 0 0 0 0 0 0 270 584 389 325 681 885 1039 985 815 566 605 639 700 759 720 831 740 933 1052 1085 1124
0 0 0 0 0 0 0 0 0 0 0 0 210 148 275 728 739 1106 708 925 830 681 740 705 816 808 695 824 781 911 1081 1384
0 0 0 0 0 0 0 0 0 0 0 0 40 140 389 461 673 933 1044 892 897 862 744 755 756 867 787 767 654 676 995 601
3 0 0 0 0 0 0 0 0 0 0 43 240 386 455 499 772 525 828 849 981 878 849 795 808 864 833 793 783 693 989 1069
0 0 0 0 0 0 0 0 0 0 0 0 352 469 450 656 834 677 836 856 894 898 852 774 751 736 942 1098 880 749 857 1028
0 0 0 0 0 0 0 0 0 0 0 0 19 352 670 941 917 949 785 777 717 580 226 86 158 317 713 778 886 1338 967 1005
0 0 0 0 0 0 0 0 0 0 0 21 27 66 196 504 819 962 941 757 629 294 37 83 7 2 23 54 354 467 895 1069
0 0 0 0 0 0 0 0 0 0 0 0 0 0 10 3 63 292 503 553 251 171 36 3 4 36 88 148 193 253 290 338
0 0 0 0 0 0 0 0 0 0 0 0 42 135 117 30 19 149 302 215 56 7 4 4 6 2 2 67 45 13 5 5
0 0 0 0 0 0 0 0 0 0 0 0 115 0 0 0 21 97 69 0 2 1 2 2 3 3 2 1 9 3 5 6
0 0 0 0 0 0 0 0 0 0 0 177 121 33 1 0 0 5 2 2 1 0 2 2 2 6 6 17 18 11 5 12
0 0 0 0 0 0 0 0 0 0 0 159 181 0 0 0 2 5 5 1 0 0 2 2 0 14 91 31 20 5 9 9
12 13 9 81 88 50 0 62 0 10 0 0 7 0 0 4 7 1 10 6 2 0 3 2 0 69 146 49 58 48 11 6
14 149 10 86 143 50 56 74 10 0 0 0 14 0 2 9 8 8 3 3 1 1 2 10 5 42 240 98 115 145 7 4
150 134 202 160 195 244 97 6 0 0 0 0 0 0 2 4 3 1 0 0 0 4 6 6 7 35 96 48 123 158 6 6
124 702 690 501 269 230 116 23 0 0 0 0 0 0 1 2 0 0 0 0 2 3 4 4 6 9 49 123 89 39 2 2
13 269 394 318 311 220 149 34 1 0 9 44 0 0 0 0 0 0 0 0 0 1 2 4 4 3 23 112 58 57 2 2

GFSFLT2_con_sbcape_144.txt.gz
CAPE
0 0 0 0 0 81 83 27 53 56 1 0 35 718 1101 1459 1270 1370 1241 893 843 823 882 904 987 1326 1373 1475 1912 2051 1964 2244
0 0 0 0 0 6 7 11 22 15 0 39 218 583 927 1084 1400 1415 1249 1141 963 891 811 1070 1266 1334 1507 1535 1777 2026 1897 2049
0 0 0 0 0 0 8 14 11 12 14 0 36 345 661 823 1054 1318 1600 1391 1214 1002 1048 1047 1310 1394 1460 1519 1714 1954 2037 1996
0 0 0 1 0 5 10 9 0 3 47 2 0 303 466 710 1006 1317 1513 1828 1638 1406 1236 1195 1273 1401 1380 1610 1528 1418 1827 2129
9 0 0 0 0 12 17 11 36 8 20 30 408 602 625 586 994 1590 1658 1872 1912 1729 1734 1646 1535 1586 1517 1450 1574 1515 1747 1873
68 41 4 0 0 0 4 14 7 6 5 9 140 666 730 790 1008 1249 1798 1926 1952 1932 1907 1857 1775 1771 1793 1666 1561 1619 1471 1786
8 6 23 15 18 3 5 19 50 55 24 16 0 31 532 901 1325 1134 1487 1767 2023 2017 1998 1943 1954 1846 1871 1739 1683 1724 1615 1571
59 0 0 19 14 0 0 0 0 0 0 1 97 234 655 1049 1270 1302 1390 1454 1559 1640 1471 1420 1410 1464 1646 1732 1847 1986 1889 1760
110 0 1 21 0 0 0 0 0 0 0 9 286 884 1011 922 1089 1214 1401 1415 1480 1382 1235 1175 691 778 1036 1068 1225 1251 1294 1742
128 50 52 47 0 0 0 0 0 0 0 63 128 476 428 269 472 755 808 1294 1451 1104 976 637 496 521 428 621 665 713 749 713
232 161 94 1 0 0 0 0 0 0 0 15 145 67 330 201 177 353 577 919 958 823 666 347 371 81 128 357 468 452 459 332
145 220 190 114 0 0 0 0 0 0 0 0 52 0 115 197 299 409 544 644 535 296 210 90 3 55 54 176 228 285 165 58
173 206 109 46 45 0 0 0 0 0 0 0 0 283 536 356 396 404 449 420 346 185 12 5 9 15 51 108 223 37 12 12
89 174 103 25 53 6 6 1 0 0 0 59 194 645 408 301 312 213 166 41 2 6 12 8 10 84 126 219 106 49 33 14
20 95 414 142 27 30 53 32 75 98 205 227 466 313 270 208 103 8 3 12 11 2 6 8 11 61 145 208 113 103 56 9
39 113 284 152 374 345 184 180 297 129 244 156 298 237 106 40 13 10 19 20 17 23 19 14 18 110 345 220 167 136 29 17
98 368 311 211 452 451 464 455 337 400 356 272 138 104 105 47 13 16 9 2 3 11 14 18 32 74 267 121 170 193 20 65
17 640 785 639 551 684 606 468 416 411 258 118 146 172 79 30 12 8 3 4 17 20 12 11 16 84 161 252 392 190 39 134
274 520 851 882 665 656 614 517 373 288 252 272 226 121 98 4 11 2 12 28 16 16 12 10 10 155 334 320 481 273 65 141

GFSFLT2_con_sbcape_147.txt.gz
CAPE
0 0 0 0 0 0 0 16 189 164 244 45 6 19 222 868 1122 1367 1082 783 915 997 1153 1239 1302 1356 1602 2344 2519 2587 2237 2844
0 0 0 0 0 0 1 203 77 229 261 81 10 2 316 780 1108 1191 1374 1089 1052 1209 1229 1374 1364 1438 1578 1877 2339 2496 2195 2346
0 0 0 0 0 0 47 104 91 86 104 87 383 249 434 674 1034 1054 1369 1308 1224 1281 1247 1448 1519 1418 1702 1789 2489 2474 2706 2974
2 0 0 2 0 11 61 96 92 74 60 22 79 232 292 709 972 1090 1243 1640 1566 1519 1468 1381 1628 1743 1858 1988 1971 2165 2761 3675
6 40 1 0 2 6 41 68 89 77 130 139 24 11 446 637 983 1205 1470 1867 2043 1978 1872 1741 1703 1874 1849 1905 2079 2091 2431 2669
43 87 45 1 0 3 61 69 99 106 198 154 143 211 368 635 889 1238 1450 1917 2104 2420 2604 2474 2379 2425 2354 2175 2073 2241 2207 2522
0 1 56 92 0 0 28 89 96 114 127 97 115 198 458 715 1166 1352 1731 1764 2152 2509 2938 2882 2751 2708 2619 2497 2459 2362 2329 2317
45 69 37 72 32 41 51 69 79 30 39 35 106 54 62 834 1319 1294 1440 1571 1939 2500 2742 2785 2787 2728 2607 2652 2608 2498 2515 2426
87 116 116 133 112 81 72 57 51 100 79 45 98 125 107 601 1270 1447 1388 1519 1775 1927 1900 2037 2068 2105 2252 2173 2209 2215 2298 2281
185 375 214 96 94 93 83 61 50 33 10 10 130 112 384 534 959 1346 1485 1516 1779 1862 1944 1829 1521 1540 1456 1614 1635 1498 1395 1221
298 299 53 245 90 87 36 23 3 2 0 0 391 605 707 595 640 977 759 1240 1710 1569 1652 1375 1349 930 893 1027 1084 919 941 743
271 71 401 247 144 71 12 0 0 0 0 14 281 59 74 323 213 399 654 1140 1131 1030 1039 984 861 578 652 763 709 794 510 211
149 255 237 263 6 20 10 106 12 5 0 17 146 723 801 565 526 519 619 781 685 620 603 502 504 446 291 559 787 253 161 126
123 332 395 65 120 73 372 34 0 0 0 0 223 1065 785 600 537 448 580 663 512 494 416 2 38 26 212 448 247 84 68 28
152 400 1070 14 212 66 150 144 32 12 56 0 114 498 386 407 415 356 270 321 161 115 39 1 5 52 279 486 256 129 95 10
368 198 105 245 352 100 84 93 166 100 173 18 163 234 232 214 167 284 91 66 5 9 11 12 38 269 404 326 221 139 79 12
193 244 342 301 290 405 196 378 330 274 274 128 74 239 134 341 345 139 58 18 11 9 18 20 62 278 340 294 383 124 117 15
182 266 663 753 639 514 750 677 679 634 523 389 153 282 427 413 313 142 31 13 19 29 27 21 143 294 376 385 281 113 123 11
272 175 383 1012 840 809 874 800 733 626 587 424 360 460 423 334 258 54 110 77 90 39 50 66 151 206 287 610 437 245 210 68

GFSFLT2_con_sbcape_150.txt.gz
CAPE
0 0 0 0 0 0 0 20 11 18 238 3 69 96 52 40 630 225 447 899 1044 844 1122 1613 1496 1459 1856 2787 3076 2992 2884 3107
0 0 0 0 0 0 0 0 19 24 207 42 22 52 18 281 65 439 840 953 1178 1198 1206 1413 1817 1792 1793 2789 3005 3086 2653 3137
1 0 0 0 0 0 0 0 0 103 102 334 207 94 11 379 145 179 729 1097 1593 1591 1632 1577 1768 2107 2107 2726 2937 3214 2743 2881
0 0 0 0 0 0 1 0 0 113 40 68 43 54 53 967 157 0 235 1517 1817 2010 2063 1998 1964 1965 2299 2656 2971 3045 2903 2932
0 0 2 0 0 0 0 3 203 147 124 43 23 16 431 614 270 19 1608 1833 1881 2008 2728 2348 2267 2284 1897 2615 2562 2616 3011 3270
1 9 25 1 0 0 4 50 40 30 125 117 31 69 637 373 26 212 2133 2417 2346 2340 2655 3015 3452 3789 3527 2831 2468 3324 3124 3538
0 0 2 1 9 12 0 2 101 81 127 80 19 204 472 913 927 1436 1955 2037 2728 3096 3453 3766 3891 3654 3546 3380 3484 3708 3618 3315
0 0 2 6 0 4 7 0 0 83 37 37 22 135 317 1221 1190 1751 1840 2054 2821 3491 3495 3493 3587 3824 3601 3626 3775 3610 3621 3059
22 0 7 10 14 49 53 0 6 101 122 31 54 101 165 1048 540 932 1619 1862 2505 2960 3256 3439 3434 3471 3539 3560 3674 3485 2816 2846
292 209 128 7 51 23 110 60 51 28 240 0 90 2 152 765 57 0 238 2250 2589 2123 2720 2575 2512 2554 2813 2867 3028 2833 2190 1909
223 301 112 105 48 67 226 47 115 28 22 30 217 325 1077 1115 13 0 515 2221 2522 2448 2828 2329 2426 1640 2077 2330 2227 1919 1904 1168
166 429 265 221 267 91 2 291 185 0 0 12 326 216 442 928 926 1050 1112 2097 2203 1860 1915 1553 1496 1075 1124 1734 1657 799 720 519
252 191 343 371 51 19 203 398 162 4 14 307 996 999 1167 733 874 727 1366 1383 1169 1589 1598 1655 862 778 969 1208 576 389 146 3
562 353 211 111 9 36 190 257 548 357 506 1783 1630 1304 1037 819 842 847 970 927 605 1010 1130 450 611 406 663 320 342 201 8 4
390 376 150 65 5 0 0 688 383 540 395 1806 1476 959 745 776 632 563 640 841 329 674 512 150 57 353 639 410 510 81 8 2
204 596 494 261 239 240 50 593 606 329 83 102 286 566 410 452 534 494 454 546 297 317 135 31 18 67 562 331 289 158 50 5
164 767 448 390 488 611 362 481 537 779 222 179 187 406 301 388 778 714 341 165 78 53 32 4 49 280 493 563 388 146 55 2
281 171 613 908 360 434 429 739 982 873 388 351 239 484 393 956 716 495 273 200 146 78 20 20 189 493 447 580 434 154 26 2
38 32 4 358 681 742 992 977 840 719 776 494 412 657 779 796 605 251 124 123 96 65 71 60 280 478 692 656 286 414 33 10